[[{"header":{"parameterUnit":"m.s-1","parameterCategory":1,"la1":30.2992,"la2":30.254,"lo1":-89.0895,"lo2":-89.0443,"dy":0.0025,"dx":0.0025,"nx":19,"ny":19,"refTime":"2026-05-16T21:00:00:Z","depth":0,"parameterNumber":2,"parameterNumberName":"U-component_of_WINDS"},"data":[0,0,0,-4.2391,-4.2393,-4.25,-4.2501,-4.2646,-4.2647,0,0,0,0,0,0,0,0,0,0,0,-4.2364,-4.2365,-4.2391,-4.2393,-4.25,-4.2501,-4.2646,-4.2647,0,0,0,0,0,0,0,0,0,0,0,-4.2363,-4.2365,-4.2366,-4.2394,-4.25,-4.2501,-4.2645,-4.2562,0,0,0,0,0,0,0,0,0,0,-4.2456,-4.2436,-4.2364,-4.2366,-4.2394,-4.25,-4.2501,-4.2557,-4.2567,-4.2601,0,-4.2632,0,-4.2642,-4.2657,-4.2658,0,0,0,-4.239,-4.2428,-4.2453,-4.2366,-4.2395,-4.25,-4.2451,-4.2563,-4.2573,-4.2613,-4.2634,-4.2639,-4.2644,-4.2658,-4.2659,-4.2866,-4.2867,0,0,-4.2384,-4.2385,-4.2445,-4.246,-4.2443,-4.2448,-4.2454,-4.2569,-4.2592,-4.2634,-4.2642,-4.2647,-4.2659,-4.2661,-4.2865,-4.2866,0,0,0,-4.2369,-4.2381,-4.2403,-4.2454,-4.2473,-4.2451,-4.2459,-4.2586,-4.2593,-4.2644,-4.2648,-4.266,-4.2662,-4.2863,-4.2865,-4.2921,0,0,0,-4.2366,-4.2373,-4.2401,-4.2403,-4.2471,-4.2531,-4.2474,-4.2585,-4.2598,-4.2648,-4.266,-4.2664,-4.2862,-4.2864,-4.2917,-4.2946,0,0,0,-4.2355,-4.2372,-4.2389,-4.2403,-4.2449,-4.2529,-4.2542,-4.2588,-4.2601,-4.2658,-4.2664,-4.2861,-4.2864,-4.2913,-4.294,-4.3,0,0,0,-4.2344,-4.2437,-4.239,-4.2496,-4.2448,-4.2563,-4.2542,-4.2628,-4.2683,-4.2661,-4.2862,-4.2865,-4.2912,-4.2936,-4.2996,-4.3049,-4.3071,0,0,-4.2462,-4.2452,-4.2514,-4.2474,-4.2598,-4.2547,-4.2679,-4.2729,-4.2733,-4.2821,-4.2827,-4.2918,-4.294,-4.2999,-4.3202,-4.322,0,0,0,-4.2552,-4.2596,-4.2629,-4.2681,-4.2722,-4.2758,-4.2788,-4.2806,-4.2881,-4.2779,-4.2957,-4.297,-4.3004,-4.3029,-4.3045,-4.3074,-4.2877,-4.2877,-4.2877,-4.2719,-4.272,-4.2822,-4.2836,-4.2888,-4.2918,-4.296,-4.299,-4.2976,-4.3018,-4.3043,-4.3166,-4.3196,-4.3208,-4.3238,-4.3073,-4.3074,-4.3074,-4.3074,-4.289,-4.2952,-4.2932,-4.3024,-4.3025,-4.3103,-4.3136,-4.3124,-4.3196,-4.3147,-4.3178,-4.3123,-4.3227,-4.3254,-4.3078,-4.3077,-4.3077,-4.3077,-4.3076,-4.2998,-4.3027,-4.3049,-4.3125,-4.3185,-4.3197,-4.3267,-4.3266,-4.3265,-4.3296,-4.3322,-4.3321,-4.3318,-4.3309,-4.3309,-4.331,-4.331,-4.331,-4.3311,-4.31,-4.3122,-4.3181,-4.3233,-4.3266,-4.3311,-4.3343,-4.3377,-4.3413,-4.3407,-4.3407,-4.3388,-4.3238,-4.3199,-4.3317,-4.3316,-4.3315,-4.3315,-4.3314,-4.3269,-4.3231,-4.3322,-4.3356,-4.3416,-4.3474,-4.3473,-4.3542,-4.3569,-4.3604,-4.358,-4.347,-4.3458,-4.3446,-4.3414,-4.358,-4.358,-4.358,-4.358,-4.3358,-4.3353,-4.3445,-4.35,-4.3553,-4.3561,-4.3664,-4.3691,-4.3713,-4.373,-4.3706,-4.3664,-4.3652,-4.3648,-4.3631,-4.3601,-4.3811,-4.3811,-4.3812,-4.3461,-4.3461,-4.3548,-4.3569,-4.3616,-4.3657,-4.3754,-4.3817,-4.3834,-4.3821,-4.3743,-4.3733,-4.3665,-4.3643,-4.3625,-4.3599,-4.3543,0,0]},{"header":{"parameterUnit":"m.s-1","parameterCategory":1,"la1":30.2992,"la2":30.254,"lo1":-89.0895,"lo2":-89.0443,"dy":0.0025,"dx":0.0025,"nx":19,"ny":19,"refTime":"2026-05-16T21:00:00:Z","depth":0,"parameterNumber":3,"parameterNumberName":"V-component_of_WINDS"},"data":[0,0,0,3.751,3.751,3.7485,3.7485,3.7475,3.7475,0,0,0,0,0,0,0,0,0,0,0,3.7531,3.7532,3.751,3.751,3.7485,3.7485,3.7475,3.7475,0,0,0,0,0,0,0,0,0,0,0,3.7531,3.7532,3.7532,3.751,3.7485,3.7485,3.7475,3.7486,0,0,0,0,0,0,0,0,0,0,3.7506,3.7539,3.7532,3.7532,3.751,3.7485,3.7485,3.7486,3.7485,3.7496,0,3.7509,0,3.7492,3.7476,3.7476,0,0,0,3.75,3.754,3.7521,3.7532,3.751,3.7485,3.7493,3.7485,3.7484,3.7495,3.7508,3.7507,3.7492,3.7476,3.7476,3.7572,3.7573,0,0,3.7501,3.7534,3.7522,3.7521,3.7526,3.7494,3.7493,3.7484,3.7501,3.7508,3.7507,3.7492,3.7476,3.7476,3.7571,3.7573,0,0,0,3.7512,3.7535,3.7516,3.7522,3.7516,3.7494,3.7492,3.7502,3.7493,3.7507,3.7491,3.7476,3.7476,3.757,3.7572,3.765,0,0,0,3.7513,3.7542,3.7517,3.7537,3.7516,3.7508,3.751,3.7493,3.7491,3.7491,3.7476,3.7476,3.7569,3.7571,3.7646,3.7682,0,0,0,3.7528,3.7543,3.7544,3.7539,3.7529,3.7508,3.7498,3.7492,3.7483,3.7476,3.7476,3.7569,3.7571,3.7642,3.7675,3.7717,0,0,0,3.7555,3.7613,3.7546,3.7606,3.753,3.7556,3.7497,3.7515,3.7519,3.7476,3.7569,3.7572,3.764,3.7671,3.7713,3.7759,3.7781,0,0,3.7647,3.7626,3.7658,3.7597,3.7645,3.7557,3.7616,3.7588,3.7557,3.7569,3.7571,3.7647,3.7674,3.7716,3.7893,3.7911,0,0,0,3.7699,3.7723,3.7728,3.7733,3.7714,3.77,3.766,3.7649,3.7658,3.757,3.7672,3.7688,3.7711,3.7732,3.7747,3.7765,3.7582,3.7582,3.7582,3.7876,3.7834,3.7886,3.7842,3.7847,3.7806,3.7807,3.7786,3.7741,3.7767,3.777,3.7882,3.7907,3.7918,3.7938,3.779,3.7791,3.7791,3.7791,3.8008,3.8036,3.7976,3.8005,3.7961,3.7985,3.7948,3.7916,3.7932,3.7876,3.7894,3.7837,3.7939,3.7954,3.7797,3.7796,3.7795,3.7794,3.7794,3.812,3.8126,3.8113,3.8117,3.8125,3.8078,3.8097,3.8055,3.8017,3.8035,3.8035,3.8033,3.8027,3.8038,3.8038,3.8038,3.8039,3.8039,3.8039,3.8241,3.8224,3.8245,3.823,3.8229,3.8222,3.8182,3.8179,3.8166,3.8135,3.8135,3.8089,3.7957,3.7925,3.8045,3.8044,3.8043,3.8043,3.8042,3.8391,3.8351,3.8383,3.8382,3.8363,3.8374,3.8321,3.832,3.8312,3.8323,3.8273,3.8183,3.8158,3.8145,3.8119,3.8282,3.8282,3.8282,3.8282,3.8486,3.847,3.8494,3.8496,3.8492,3.8448,3.8487,3.8458,3.842,3.8413,3.8383,3.8344,3.8334,3.8315,3.8299,3.8274,3.8472,3.8472,3.8473,3.8577,3.8558,3.8599,3.8563,3.8545,3.853,3.8566,3.857,3.8519,3.848,3.8407,3.8399,3.8335,3.8317,3.8275,3.8251,3.8204,0,0]}]]